SCP
0 0 0 0 0 0 0 0 0 0 0 0 0 0 0 0 0 0 0 0 0 0 0 0 0 0 0 0 0 0 0 0 0 0 0 0 0 0
0 0 0 0 0 0 0 0 0 0 0 0 0 0 0 0 0 0 0 0 0 0 0 0 0 0 0 0 0 0 0 0 0 0 0 0 0 0
0 0 0 0 0 0 0 0 0 0 0 0 0 0 0 0 0 0 0 0 0 0 0 0 0 0 0 0 0 0 0 0 0 0 0 0 0 0
0 0 0 0 0 0 0 0 0 0 0 0 0 0 0 0 0 0 0 0 0 0 0 0 0 0 0 0 0 0 0 0 0 0 0 0 0 0
0 0 0 0 0 0 0 0 0 0 0 0 0 0 0 0 0 0 0 0 0 0 0 0 0 0 0 0 0 0 0 0 0 0 0 0 0 0
0 0 0 0 0 0 0 0 0 0 0 0 0 0 0 0 0 0 0 0 0 0 0 0 0 0 0 0 0 0 0 0 0 0 0 0 0 0
0 0 0 0 0 0 0 0 0 0 0 0 0 0 0 0 0 0 0 0 0 0 0 0 0 0 0 0 0 0 0 0 0 0 0 0 0 0
0 0 0 0 0 0 0 0 0 0 0 0 0 0 0 0 0 0 0 0 0 0 0 0 0 0 0 0 0 0 0 0 0 0 0 0 0 0
0 0 0 0 0 0 0 0 0 0 0 0 0 0 0 0 0 0 0 0 0 0 0 0 0 0 0 0 0 0 0 0 0 0 0 0 0 0
0 0 0 0 0 0 0 0 0 0 0 0 0 0 0 0 0 0 0 0 0 0 0 0 0 0 0 0 0 0 0 0 0 0 0 0 0 0
0 0 0 0 0 0 0 0 0 0 0 0 0 0 0 0 0 0 0 0 0 0 0 0 0 0 0 0 0 0 0 0 0 0 0 0 0 0
0 0 0 0 0 0 0 0 0 0 0 0 0 0 0 0 0 0 0 0 0 0 0 0 0 0 0 0 0 0 0 0 0 0 0 0 0 0
0 0 0 0 0 0 0 0 0 0 0 0 0 0 0 0 0 0 0 0 0 0 0 0 0 0 0 0 0 0 0 0 0 0 0 -0 -0 0
0 0 0 0 0 0 0 0 0 0 0 0 0 0 0 0 0 0 0 0 0 0 0 0 0 0 0 0 0 0 0 0 0 0 0 0 0 0
0 0 0 0 0 0 0 0 0 0 0 0 0 0 0 0 0 0 0 0 0 0 0 0 0 0 0 0 0 0 0 0 0 0 0 0 0 0
0 0 0 0 0 0 0 0 0 0 0 0 0 0 0 0 0 0 0 0 0 0 0 0 0 0 0 0 0 0 0 0 0 0 0 0 0 0
0 0 0 0 0 0 0 0 0 0 0 0 0 0 0 0 0 0 0 0 0 0 0 0 0 0 0 0 0 0 0 0 0 0 0 0 0 0
0 0 0 0 0 0 0 0 0 0 0 0 0 0 0 0 0 0 0 0 0 0 0 0 0 0 0 0 0 0 0 0 0 0 0 0 0 0
0 0 0 0 0 0 0 0 0 0 0 0 0 0 0 0 0 0 0 0 0 0 0 0 0 0 0 0 0 0 0 0 0 0 0 0 0 0
0 0 0 0 0 0 0 0 0 0 0 0 0 0 0 0 0 0 0 0 0 0 0 0 0 0 0 0 0 0 0 0 0 0 0 0 0 0
0 0 0 0 0 0 0 0 0 0 0 0 0 0 0 0 0 0 0 0 0 0 0 0 0 0 0 0 0 0 0 0 0 0 0 0 0 0
0 0 0 0 0 0 0 0 0 0 0 0 0 0 0 0 0 0 0 0 0 0 0 0 0 0 0 0 0 0 0 0 0 0 0 0 0 0
0 0 0 0 0 0 0 0 0 0 0 0 0 0 0 0 0 0 0 0 0 0 0 0 0 0 0 0 0 0 0 0 0 0 0 0 0 0
Wind_Speed
1 1 1 1 2 2 3 4 5 3 1 1 1 0 1 2 3 2 3 6 8 8 8 9 9 9 8 9 9 8 8 8 8 8 8 8 7 6
1 3 2 1 1 2 2 2 2 4 3 2 1 2 1 2 4 2 3 6 7 7 8 8 9 8 9 9 9 9 8 9 9 9 9 8 8 8
2 3 2 2 2 1 2 2 2 3 4 1 1 1 2 2 2 2 2 2 3 6 7 7 8 8 8 8 8 8 8 8 9 9 9 9 9 9
2 2 2 2 2 1 2 3 2 2 4 4 2 1 2 3 3 2 2 2 2 5 6 6 7 7 7 7 7 7 7 8 9 9 9 9 9 9
2 2 1 2 2 1 2 3 2 3 3 5 3 1 1 2 2 2 2 1 2 3 4 4 5 5 6 6 6 6 6 7 7 7 7 7 7 8
2 2 2 2 2 2 3 3 3 4 3 4 3 2 2 2 3 2 1 1 0 1 2 2 3 3 4 4 5 5 5 5 5 5 5 5 6 6
2 2 2 3 3 3 3 4 5 4 3 3 3 2 2 2 2 2 2 1 1 0 1 0 0 0 0 1 3 4 3 3 3 3 3 3 4 4
2 2 3 4 4 5 5 6 7 6 5 4 3 3 3 3 2 3 3 2 1 1 1 1 1 1 1 1 3 4 4 3 3 2 1 1 1 2
2 2 2 3 3 3 4 5 3 4 6 5 5 4 4 5 5 3 3 3 3 3 3 1 1 2 2 3 5 5 5 4 4 3 2 2 1 1
2 2 2 2 2 3 3 3 2 1 2 3 4 5 4 5 5 5 5 2 1 1 3 2 2 2 2 2 5 7 6 6 5 4 3 2 2 2
2 2 3 2 2 4 4 3 2 1 1 2 3 4 5 6 6 4 3 3 1 2 2 2 2 1 1 2 4 7 8 7 6 5 4 4 3 2
1 1 2 3 4 5 4 4 3 1 1 1 1 1 1 3 5 5 5 4 2 2 3 3 2 2 1 2 2 2 4 6 7 7 6 5 4 2
2 2 2 3 4 5 4 3 4 3 2 2 1 1 1 1 2 3 4 4 4 4 4 4 3 2 2 2 2 2 3 3 3 4 5 6 5 5
3 3 3 4 4 4 3 3 4 4 2 2 1 1 1 2 2 3 3 4 4 4 4 5 3 4 3 2 2 2 2 3 3 3 3 3 4 6
3 5 5 5 4 3 3 4 4 2 2 2 2 2 3 3 2 1 1 1 1 2 3 4 4 4 4 3 3 2 2 2 3 3 3 3 3 3
2 3 3 3 2 2 1 2 2 2 3 3 3 2 1 1 1 2 1 1 1 2 2 2 4 5 3 3 3 3 3 3 3 4 3 3 3 3
3 1 1 1 1 1 1 1 1 1 2 2 2 2 2 2 2 2 2 2 2 2 2 2 1 2 3 4 3 3 3 3 3 3 3 3 3 4
5 3 3 3 4 4 3 3 3 3 3 3 3 3 3 3 3 2 2 2 3 3 3 2 1 1 2 2 4 4 3 3 2 3 3 3 4 4
4 3 4 4 4 4 4 4 3 4 3 3 3 3 3 3 3 2 2 2 3 3 3 2 2 3 2 4 4 5 5 3 2 2 3 4 5 5
3 4 4 4 4 4 4 4 3 3 2 3 3 3 3 3 3 3 3 4 4 3 3 2 3 4 6 5 3 3 5 5 4 3 3 3 2 2
5 4 4 4 3 4 4 4 4 3 3 3 3 4 3 3 3 3 4 5 4 3 4 4 6 6 3 2 1 2 3 5 6 5 4 3 2 1
5 5 4 4 4 4 4 4 3 3 4 4 4 4 4 4 4 5 4 4 4 4 5 4 2 2 2 3 4 4 3 3 4 5 6 7 5 5
5 5 4 4 4 3 3 4 4 4 4 4 4 3 3 3 3 4 4 4 3 4 3 2 1 2 3 3 4 3 4 3 2 1 3 5 6 7
Wind_Direction
72 80 92 105 124 132 139 150 148 154 175 179 117 73 105 86 76 63 65 78 78 75 75 79 81 80 80 79 77 74 71 70 69 69 68 66 62 58
73 71 65 76 100 110 135 137 135 144 153 172 170 178 156 122 105 77 73 85 83 83 84 86 88 89 85 81 78 76 74 74 75 74 71 66 60 58
61 77 69 80 95 102 110 114 115 122 131 131 112 137 131 132 112 90 78 65 79 89 91 91 90 87 83 81 81 78 77 78 78 77 73 70 65 62
81 83 75 89 85 99 109 116 125 130 139 145 146 146 150 157 142 127 114 102 90 92 95 94 91 90 86 85 85 85 80 79 77 74 72 67 65 62
95 97 96 100 92 96 114 120 122 118 125 142 152 146 136 144 120 117 113 86 116 113 105 101 102 99 94 91 88 86 83 79 75 72 68 64 62 61
75 87 95 115 133 132 123 123 123 117 119 132 132 135 136 140 127 130 109 65 120 116 103 114 114 110 110 111 108 103 94 89 81 73 68 64 60 58
65 64 80 94 107 123 136 140 135 134 134 137 149 138 141 147 168 167 155 146 354 151 89 31 92 25 224 161 147 142 132 124 112 95 79 70 62 55
95 66 72 74 84 90 119 142 152 155 161 163 174 174 186 178 160 158 150 140 218 229 142 264 175 237 256 244 214 189 181 178 174 162 142 110 89 75
127 113 90 77 81 89 94 103 126 154 166 169 173 189 185 185 166 163 172 172 199 194 142 232 243 242 248 236 219 214 210 206 203 202 203 195 174 139
138 134 120 102 106 112 103 90 83 112 166 169 181 194 189 180 175 172 173 160 124 151 145 180 223 237 246 239 232 221 222 225 224 220 217 218 210 207
136 132 136 136 147 132 117 109 82 8 25 137 163 175 176 174 163 136 136 130 167 229 187 168 200 225 260 252 240 227 227 231 236 238 235 230 222 220
129 143 156 154 151 145 142 143 150 203 133 94 90 94 141 169 173 172 169 164 172 222 212 168 173 151 257 266 234 225 229 238 239 240 238 235 219 190
172 190 214 183 163 161 162 172 190 175 152 137 122 102 95 156 190 191 186 177 181 217 204 164 167 172 184 250 271 230 211 219 221 237 237 234 219 191
191 200 207 194 181 174 176 181 164 139 128 133 144 186 211 224 226 217 204 207 207 212 197 169 172 179 173 193 253 260 230 218 206 221 226 231 227 213
203 204 202 200 192 192 194 174 154 143 144 160 196 224 228 224 212 214 222 220 247 243 203 188 178 175 174 188 209 215 224 234 208 212 217 210 211 199
201 199 189 194 199 212 210 193 178 179 177 192 212 232 224 196 201 200 204 203 219 285 280 221 192 176 184 195 188 210 208 218 215 208 206 219 221 209
164 137 132 145 186 237 238 223 200 185 201 213 206 210 214 210 221 211 196 190 203 234 266 282 251 206 197 182 198 218 214 225 222 199 186 213 234 224
155 173 195 197 201 206 210 225 219 212 215 212 209 207 209 212 225 224 202 196 212 227 230 230 190 46 354 285 217 209 215 220 222 198 183 197 238 239
174 200 205 207 212 213 212 215 223 223 212 207 215 216 212 210 208 213 212 215 222 229 235 220 190 172 202 253 268 210 196 207 194 202 202 198 219 232
210 212 216 216 216 214 215 218 223 222 213 214 220 220 212 204 206 213 214 218 219 220 229 225 209 203 209 220 231 246 207 191 189 206 219 217 240 264
217 222 219 218 220 218 216 214 212 213 215 211 214 217 214 207 217 225 225 225 215 210 217 231 236 225 198 132 196 269 255 216 199 198 197 194 220 253
217 220 220 216 215 216 213 211 211 214 216 217 219 219 216 210 216 222 224 218 216 215 221 236 239 175 166 191 219 237 254 264 242 229 210 190 183 200
215 217 217 213 213 211 209 211 215 220 219 218 217 217 214 217 222 221 220 216 214 213 215 229 227 201 209 208 215 226 237 241 233 237 260 249 230 234